Location: Kelshall
(52.0000°N, 0.0500°W)
Time: 03:17:28
(UTC+00:00)

ATLAS CENTAUR R/B - Pass Details

Date: 17 January 2021
Orbit: 475 x 670 km, 64.7° (Epoch: 06 March)

Event Time Altitude Azimuth Distance (km) Brightness Sun altitude
Rises 07:18:37 0° 189° (S) 2,543 4.9 -6.3°
Reaches altitude 10° 07:21:00 10° 176° (S) 1,653 4.2 -5.9°
Maximum altitude 07:24:02 25° 120° (ESE) 1,000 3.9 -5.5°
Drops below altitude 10° 07:27:04 10° 64° (ENE) 1,652 4.3 -5.1°
Sets 07:29:27 0° 51° (NE) 2,542 5.0 -4.8°
